Preview of NWS' New Version of Forecast
This preview is not operational and should not be used for support decisions.

Regional Weather Roundup (RWR)

Issued by Gray - Portland, ME (GYX)

                            
000
ASUS41 KGYX 241506
RWRGYX
WEATHER ROUNDUP FOR MAINE AND NEW HAMPSHIRE
NATIONAL WEATHER SERVICE GRAY ME
1100 AM EDT FRI MAY 24 2019

MEZ002-005-006-010-012-015-018-020-021-024-026-027-029-241600-
MAINE
  
CITY           SKY/WX    TMP DP  RH WIND       PRES   REMARKS
PORTLAND       CLOUDY    58  47  66 N23G31    29.72R                  
SANFORD        CLOUDY    62  47  57 N21G26    29.71R                  
BAR HARBOR     LGT RAIN  49  47  93 NE16      29.67R                  
WISCASSET      CLOUDY    52  46  80 VRB7G18   29.72R                  
ROCKLAND       CLOUDY    50  47  89 N9        29.67R                  
FRYEBURG       CLOUDY    59  46  62 N16G30    29.76R                  
LEWISTONAUBURN CLOUDY    53  46  77 N23G31    29.75R                  
AUGUSTA        LGT RAIN  49  47  93 N18G25    29.74R FOG              
WATERVILLE     LGT RAIN  49  47  93 N16G22    29.72R                  
BANGOR         DRIZZLE   50  48  93 NE16      29.72R FOG              
GREENVILLE       N/A     49  44  83 NE14G23   29.78R                  
MILLINOCKET    CLOUDY    50  47  89 NE14      29.81R FOG              
HOULTON        CLOUDY    52  43  71 E16G30    29.83R                  
PRESQUE ISLE   PTSUNNY   53  46  77 E12       29.88R                  
FRENCHVILLE    PTSUNNY   56  43  61 E8        29.89R                  
CARIBOU        PTSUNNY   54  44  69 E8        29.87S                  
$$

NHZ002-005-008-009-011-012-014-241600-
NEW HAMPSHIRE
  
CITY           SKY/WX    TMP DP  RH WIND       PRES   REMARKS
ROCHESTER      PTSUNNY   64  48  56 N21G30    29.69R                  
NASHUA         CLOUDY    66  50  56 NW30G37   29.73R                  
MANCHESTER     PTSUNNY   66  49  54 NW25G35   29.72R                  
CONCORD        FAIR      66  48  52 NW22G38   29.74R                  
LACONIA        FAIR      63  48  58 NW22G29   29.75R                  
PLYMOUTH       CLOUDY    61  48  63 NW14G29   29.79R                  
BERLIN         CLOUDY    56  45  66 N14       29.80R                  
WHITEFIELD     CLOUDY    54  46  74 VRB5      29.83R                  
JAFFREY        PTSUNNY   63  47  55 NW13G30   29.79R                  
KEENE          PTSUNNY   65  49  56 N21G29    29.80R                  
LEBANON        CLOUDY    62  49  62 NW13G23   29.82R                  
MT WASHINGTON  NOT AVBL                                               
$$

VTZ005-007-008-241600-
VERMONT
  
CITY           SKY/WX    TMP DP  RH WIND       PRES   REMARKS
ST JOHNSBURY     N/A     56  49  77 MISG      29.84R                  
MONTPELIER     CLOUDY    55  49  80 NW16G22   29.91R                  
BURLINGTON     CLOUDY    57  51  80 NW9       29.92R                  
$$

MAZ007-012-024-CTZ003-RIZ002-NYZ038-NYZ072-241600-
SOUTHERN NEW ENGLAND AND NY
  
CITY           SKY/WX    TMP DP  RH WIND       PRES   REMARKS
BOSTON         FAIR      71  49  45 NW25G38   29.69R                  
WORCESTER      CLOUDY    62  52  69 NW21G26   29.77R                  
NANTUCKET      FAIR      70  52  52 NW23G38   29.66S                  
PROVIDENCE     PTSUNNY   70  53  54 NW24G36   29.73R                  
HARTFORD       PTSUNNY   67  51  56 NW13G25   29.82R                  
ALBANY         PTSUNNY   66  52  60 NW23G32   29.89R                  
NEW YORK CITY  FAIR      70  49  47 NW21      29.86S                  
$$

ANZ081-ANZ082-ANZ150-NHZ014-MEZ023>029-241600-
COASTAL MARINE OBSERVATIONS
  
STATION/POSITION TIME  TEMP    WIND        PRES    WAVE
                       AIR SEA DIR/SP/G            HT/PER
                 (UTC) (F)     (DEG/KT/KT) (MB)    (FT/S)
ISLE OF SHOALS   1400   63     300/ 25/ 27 1002.6R
JEFFREYS LEDGE   1438      48                N/A     4/ 7
GEORGES BANK BUO 1450   48 44  250/ 10/ 14 1002.9F   7/ 8
$$

.............KEY..............
   WCI - WIND CHILL
   TC  - TEMPERATURE IN CELSIUS
   VSB - VISIBILITY IN MILES
   HX  - HEAT INDEX
   FAIR- INDICATES FEW OR NO CLOUDS BELOW 12,000 FT, WITH NO 
         SIGNIFICANT WEATHER AND/OR OBSTRUCTIONS TO VISIBILITY.